Wind_Speed
4 4 5 6 8 9 11 13 14 15 15 15 15 16 16 15 14 13 12 11 11 11 12 13 14 16 17 19 21 24 25 27 28 29 29 28 28 29 29 28 29 29 28
3 4 5 6 8 10 12 13 14 15 15 16 16 16 16 16 15 14 13 12 11 10 10 11 12 14 15 17 19 22 24 25 27 28 28 28 28 28 30 29 29 30 30
3 4 5 6 8 10 12 13 14 15 15 16 16 16 16 16 16 15 14 12 11 10 10 10 10 12 13 14 17 19 21 23 25 27 28 28 28 29 29 30 29 30 30
3 4 5 6 8 10 12 13 14 15 15 16 16 17 17 17 16 16 14 12 11 10 9 8 8 9 10 12 14 16 18 21 23 25 27 27 27 27 28 29 30 31 32
3 4 5 6 7 10 11 13 14 15 15 16 16 17 17 17 16 16 15 13 12 10 8 7 6 6 7 8 10 13 16 19 21 23 24 25 25 25 27 28 30 32 33
3 3 4 6 7 9 11 12 13 14 16 16 16 17 17 17 16 16 15 14 13 11 9 8 6 5 5 5 7 10 12 15 18 20 22 23 23 24 25 27 29 31 33
3 3 4 5 7 8 10 11 13 14 16 16 17 17 17 17 16 15 15 15 14 12 10 9 7 5 3 3 5 7 9 12 15 17 20 21 21 22 24 25 27 29 31
4 3 4 5 6 8 9 10 12 14 15 16 16 17 17 17 17 16 15 15 15 14 12 10 8 6 4 2 3 4 6 8 12 15 17 19 20 20 22 24 25 27 29
4 3 3 4 6 7 9 10 11 13 15 15 16 16 17 17 17 17 16 15 14 14 13 11 9 7 6 3 2 3 5 6 8 12 15 17 19 20 21 22 24 26 28
4 3 3 4 5 7 8 9 11 12 14 15 15 16 16 17 16 17 17 16 15 14 13 12 10 9 7 5 3 2 3 5 6 9 11 14 17 19 20 20 22 24 26
4 4 3 4 5 6 7 8 10 12 13 14 15 15 15 16 16 16 16 17 16 15 13 12 11 9 8 6 5 3 2 3 4 6 8 11 14 16 18 19 20 22 24
5 4 4 4 5 6 7 8 9 11 12 13 14 15 15 15 16 16 16 16 16 16 14 13 12 11 9 8 7 5 4 2 3 5 7 9 11 14 16 17 19 21 23
7 6 5 5 5 5 6 7 8 10 11 12 13 14 14 15 15 16 16 16 16 16 15 13 12 12 10 9 7 6 5 4 3 3 4 6 8 11 13 14 16 18 20
8 7 6 5 5 5 6 6 8 9 10 11 12 13 13 14 15 15 15 16 16 16 15 14 13 12 10 9 8 7 6 5 5 4 4 5 6 7 10 12 14 15 17
9 8 7 7 6 6 6 6 7 8 9 11 11 12 13 13 14 14 15 15 15 15 15 14 13 12 11 10 9 8 7 7 6 5 5 5 5 6 8 9 11 13 15
10 9 9 8 7 7 7 7 7 8 9 10 11 12 12 13 13 14 14 14 14 14 14 14 13 12 11 10 10 9 8 8 7 6 6 6 6 6 7 8 10 12 13
12 11 10 9 9 8 8 8 8 8 9 10 10 11 12 12 13 13 14 14 14 14 14 13 12 12 11 11 10 9 9 8 8 7 7 7 7 7 8 8 9 10 11
13 13 12 11 10 10 9 9 9 9 9 10 10 11 12 12 13 13 14 14 14 14 14 13 12 12 12 11 11 10 9 9 9 8 8 8 7 8 8 8 9 9 10
15 14 14 13 12 11 11 11 10 10 10 10 11 11 12 12 13 13 14 14 14 14 14 14 13 12 12 12 12 11 11 11 10 10 9 9 9 8 8 8 9 9 9
17 16 16 15 14 13 13 12 12 12 11 11 11 12 12 13 13 14 14 14 15 15 15 14 14 13 13 13 13 13 12 12 11 11 10 10 10 10 10 10 9 10 10
19 18 18 17 16 16 15 15 14 14 13 13 13 13 14 14 14 14 15 15 15 15 15 15 15 15 14 14 14 14 13 13 12 12 12 11 11 11 11 11 11 11 11
21 20 20 19 19 18 17 17 16 16 15 15 15 15 15 15 15 15 16 16 16 16 16 16 16 16 15 15 15 15 15 15 14 14 14 14 13 13 13 13 13 13 13
23 22 22 21 21 20 20 19 18 18 17 17 17 16 16 17 17 17 17 17 17 17 17 17 17 17 17 17 17 17 17 17 16 16 16 16 16 16 15 15 15 15 15
26 25 24 24 23 23 22 22 21 20 19 19 19 18 18 18 18 18 18 18 19 19 19 19 19 18 18 18 18 18 18 18 19 19 18 18 18 18 17 17 17 17 17
28 28 27 26 26 25 25 24 23 23 22 22 21 20 20 20 20 20 20 20 20 21 20 20 20 20 20 20 20 20 20 20 20 20 20 20 20 20 20 20 20 20 20
31 30 30 29 28 28 27 27 26 25 25 24 23 23 23 22 22 22 22 22 22 22 22 22 22 22 22 22 22 22 22 22 22 22 22 22 22 22 22 22 22 22 22
Wind_Direction
313 329 340 347 349 351 351 351 352 352 352 349 347 346 345 344 341 335 328 321 308 294 282 274 266 258 251 246 240 236 233 232 230 230 229 231 229 229 228 228 226 226 226
313 331 342 346 349 350 351 351 353 355 355 353 353 351 349 348 346 343 338 331 319 305 294 281 271 262 255 248 242 236 231 230 229 229 228 228 229 229 229 228 229 228 227
310 328 340 346 349 352 354 355 356 358 358 358 357 356 354 354 352 350 348 342 333 322 308 296 278 267 259 253 244 237 232 230 229 229 228 228 229 231 230 231 232 230 228
298 320 335 344 351 355 356 358 359 1 1 0 359 360 359 359 359 357 355 351 345 339 328 312 291 273 263 255 244 236 233 230 229 229 230 230 231 232 231 231 232 232 230
286 309 328 341 350 355 358 360 2 3 4 3 3 2 2 1 2 2 3 1 358 353 346 333 310 288 270 258 243 236 234 232 230 229 230 231 232 231 232 233 232 232 232
281 301 322 337 347 353 358 2 4 6 7 6 6 5 5 5 5 6 8 8 7 4 360 353 340 314 284 261 244 236 234 231 230 229 230 230 232 232 233 234 235 234 233
279 294 319 335 345 352 358 1 6 7 7 7 7 8 9 9 9 10 12 13 13 13 10 7 3 353 319 267 244 239 235 232 229 229 229 230 232 232 233 234 235 234 234
270 286 313 331 342 350 355 359 4 7 8 8 9 10 11 12 14 14 13 16 18 17 16 13 11 9 356 318 258 240 235 233 231 230 230 230 231 234 236 237 238 239 238
260 280 307 328 341 347 351 356 1 6 8 9 11 12 13 15 16 16 16 16 17 18 19 17 15 11 8 355 305 253 244 241 237 234 231 231 234 237 240 242 242 242 241
252 273 299 324 337 344 348 354 0 4 7 10 12 13 15 16 17 18 19 19 17 17 19 20 18 16 13 9 350 305 268 243 237 234 232 232 234 238 242 245 247 246 242
247 264 290 318 331 339 346 353 359 3 6 9 11 13 14 15 17 18 19 20 21 20 19 20 20 20 18 15 9 355 304 263 247 243 240 238 240 242 245 249 251 250 247
246 260 280 305 320 331 340 349 356 2 6 9 12 13 14 14 16 17 17 18 19 21 22 20 21 19 19 18 17 14 5 331 283 260 251 249 250 252 254 256 258 257 253
246 255 271 291 309 320 330 341 351 358 3 8 11 12 13 14 15 16 17 18 19 20 20 19 18 19 21 21 19 15 9 1 342 305 276 261 257 257 257 259 262 262 258
247 253 264 279 295 310 320 331 342 351 357 1 4 7 10 11 12 13 14 15 17 19 19 18 18 17 17 18 17 13 9 1 348 332 310 288 273 268 265 264 263 262 259
246 252 260 271 284 297 309 320 331 341 348 353 357 359 2 4 6 8 9 10 11 13 14 14 15 16 17 16 14 10 7 3 358 350 333 312 298 286 281 277 273 269 266
246 252 258 266 277 287 296 306 318 330 338 345 351 354 356 357 359 1 3 4 6 7 7 9 10 11 10 11 11 7 2 358 353 347 339 330 319 305 298 291 284 277 273
247 252 258 262 270 279 287 294 305 317 327 335 342 347 349 351 353 355 356 357 358 359 0 1 3 5 6 6 4 1 357 354 349 343 338 329 321 317 312 305 297 291 285
247 252 256 261 266 273 280 287 295 305 316 325 332 336 339 343 346 347 349 350 351 352 352 352 352 353 354 354 354 352 350 347 343 339 335 331 323 315 315 313 307 300 292
248 251 255 259 264 269 274 281 288 296 305 314 322 328 332 335 337 339 341 343 343 344 344 345 344 342 342 343 342 341 341 341 339 334 330 328 327 322 316 314 313 309 301
250 252 255 258 262 265 270 275 282 289 296 303 310 318 324 327 330 332 333 335 336 336 335 335 334 333 331 331 331 331 331 331 331 330 327 323 323 321 319 316 315 313 311
251 253 255 258 260 264 268 272 277 283 289 296 301 308 313 318 322 325 327 328 328 328 328 327 326 326 325 324 322 321 320 320 320 321 320 318 316 315 313 311 309 307 305
251 253 255 257 259 262 266 269 274 279 284 289 294 300 305 309 313 316 318 321 322 323 322 321 320 319 318 318 317 315 312 311 310 310 310 310 309 308 307 306 305 303 303
251 252 254 256 258 260 263 266 270 274 279 284 288 293 298 302 305 308 311 314 316 317 317 317 316 315 314 313 311 310 308 306 305 304 304 304 303 302 302 302 301 300 299
252 252 253 254 256 258 261 263 267 270 274 278 283 288 292 296 300 304 306 308 311 312 312 313 312 311 310 309 308 307 305 303 302 301 300 299 299 298 298 298 298 297 297
252 253 254 255 256 258 260 262 264 267 270 274 279 283 288 291 295 299 302 304 306 307 308 309 309 309 308 307 306 306 304 302 301 299 298 296 296 295 295 295 295 295 295
253 253 254 255 256 257 259 261 263 265 268 272 275 279 283 287 291 294 297 300 302 303 304 305 305 306 306 304 303 303 303 301 299 298 296 295 294 293 293 293 294 294 294
Height
5841 5840 5838 5836 5834 5831 5828 5824 5821 5817 5813 5809 5805 5801 5797 5793 5790 5786 5783 5781 5778 5777 5776 5775 5775 5776 5777 5778 5780 5782 5785 5788 5792 5796 5800 5804 5808 5811 5815 5819 5823 5826 5829
5840 5839 5837 5835 5833 5830 5827 5823 5820 5816 5812 5808 5804 5799 5796 5792 5788 5784 5781 5778 5776 5774 5772 5772 5771 5771 5772 5773 5775 5777 5780 5783 5787 5790 5794 5799 5803 5806 5810 5813 5817 5820 5824
5839 5838 5836 5834 5832 5829 5826 5822 5819 5815 5811 5807 5803 5798 5795 5791 5787 5783 5780 5776 5773 5771 5769 5768 5768 5767 5768 5769 5770 5772 5775 5778 5781 5785 5789 5793 5797 5800 5804 5807 5811 5814 5818
5838 5837 5835 5833 5831 5828 5825 5822 5818 5814 5810 5806 5802 5798 5794 5790 5786 5782 5778 5775 5772 5769 5767 5766 5765 5764 5764 5765 5766 5768 5770 5773 5776 5779 5783 5787 5791 5794 5798 5802 5805 5808 5812
5837 5836 5834 5832 5830 5827 5825 5821 5818 5814 5810 5806 5802 5798 5793 5789 5785 5781 5778 5774 5771 5768 5766 5764 5763 5762 5761 5762 5763 5764 5767 5769 5772 5775 5778 5782 5785 5788 5792 5796 5799 5802 5806
5835 5834 5833 5831 5829 5827 5824 5821 5817 5814 5810 5806 5802 5798 5793 5789 5785 5781 5777 5774 5770 5767 5765 5763 5761 5760 5759 5760 5760 5761 5763 5765 5768 5771 5774 5777 5780 5783 5786 5790 5792 5796 5799
5834 5833 5832 5830 5829 5826 5824 5821 5817 5814 5810 5806 5802 5798 5793 5789 5785 5781 5777 5774 5770 5767 5765 5762 5760 5759 5758 5758 5758 5759 5760 5762 5764 5767 5770 5773 5776 5778 5781 5784 5786 5789 5793
5833 5832 5831 5829 5828 5825 5823 5820 5817 5814 5810 5806 5802 5798 5794 5790 5786 5782 5778 5774 5771 5768 5765 5762 5760 5759 5758 5757 5757 5758 5758 5759 5761 5763 5766 5768 5771 5773 5775 5778 5781 5783 5786
5831 5830 5829 5828 5827 5825 5822 5820 5817 5814 5810 5806 5802 5798 5794 5790 5786 5782 5779 5775 5772 5769 5766 5763 5761 5759 5758 5757 5756 5756 5757 5758 5759 5761 5763 5765 5767 5769 5771 5773 5775 5778 5780
5830 5829 5828 5827 5826 5824 5822 5819 5816 5813 5810 5806 5803 5799 5795 5791 5787 5783 5780 5776 5773 5769 5767 5764 5762 5760 5758 5757 5756 5756 5756 5756 5757 5758 5759 5761 5763 5765 5767 5768 5770 5771 5773
5829 5828 5827 5826 5824 5823 5821 5819 5816 5813 5810 5807 5803 5799 5796 5792 5788 5785 5781 5777 5774 5770 5768 5765 5763 5761 5759 5757 5756 5756 5755 5755 5756 5756 5757 5758 5760 5761 5762 5763 5764 5765 5767
5827 5826 5826 5825 5823 5822 5820 5818 5816 5813 5810 5807 5803 5800 5796 5793 5789 5785 5782 5778 5775 5772 5769 5766 5764 5761 5759 5758 5757 5756 5755 5755 5755 5755 5755 5756 5757 5758 5758 5759 5760 5760 5761
5825 5825 5824 5823 5822 5821 5819 5817 5815 5812 5810 5807 5803 5800 5797 5793 5790 5786 5783 5780 5776 5773 5770 5767 5765 5762 5760 5759 5757 5756 5755 5754 5754 5754 5754 5754 5754 5754 5755 5755 5755 5755 5756
5823 5823 5822 5821 5820 5819 5818 5816 5814 5812 5809 5806 5803 5800 5797 5794 5791 5787 5784 5781 5777 5774 5771 5768 5766 5763 5761 5759 5758 5757 5756 5755 5754 5753 5752 5752 5752 5752 5752 5751 5751 5751 5751
5820 5820 5820 5819 5818 5817 5816 5815 5813 5811 5808 5806 5803 5800 5797 5794 5791 5788 5785 5782 5779 5776 5773 5770 5767 5764 5762 5760 5759 5757 5756 5754 5753 5752 5751 5750 5750 5749 5748 5748 5747 5747 5746
5818 5818 5817 5817 5816 5815 5814 5813 5811 5809 5807 5805 5802 5799 5797 5794 5791 5788 5785 5782 5779 5776 5773 5770 5768 5765 5763 5761 5759 5757 5756 5754 5753 5751 5750 5749 5748 5747 5746 5745 5744 5743 5742
5815 5815 5814 5814 5814 5813 5812 5811 5809 5808 5806 5803 5801 5799 5796 5793 5791 5788 5785 5782 5779 5776 5774 5771 5768 5766 5764 5761 5759 5757 5756 5754 5752 5751 5749 5748 5746 5745 5743 5742 5741 5739 5738
5811 5811 5811 5811 5810 5810 5809 5808 5807 5805 5804 5802 5800 5797 5795 5792 5790 5787 5784 5781 5779 5776 5773 5770 5768 5766 5763 5761 5759 5757 5755 5753 5751 5749 5748 5746 5744 5743 5741 5740 5738 5737 5735
5807 5807 5807 5807 5807 5806 5806 5805 5804 5803 5801 5799 5797 5795 5793 5790 5788 5785 5783 5780 5777 5775 5772 5769 5767 5765 5763 5760 5758 5756 5754 5752 5750 5748 5746 5744 5743 5741 5739 5738 5736 5734 5732
5802 5802 5803 5803 5803 5802 5802 5801 5800 5799 5798 5796 5795 5793 5790 5788 5786 5783 5781 5778 5776 5773 5770 5768 5765 5763 5761 5759 5757 5755 5753 5751 5749 5747 5745 5743 5741 5739 5737 5735 5734 5732 5730
5796 5797 5798 5798 5798 5798 5797 5797 5796 5795 5794 5793 5791 5789 5787 5785 5783 5781 5778 5776 5773 5771 5768 5766 5763 5761 5759 5757 5755 5752 5750 5748 5746 5744 5742 5741 5739 5737 5735 5733 5731 5729 5727
5790 5791 5792 5792 5792 5792 5792 5792 5791 5791 5790 5788 5787 5785 5784 5782 5780 5778 5775 5773 5770 5768 5765 5763 5761 5758 5756 5754 5752 5750 5748 5745 5744 5742 5740 5738 5736 5734 5732 5730 5728 5726 5724
5783 5784 5785 5785 5786 5786 5786 5786 5786 5785 5784 5783 5782 5781 5779 5778 5776 5774 5771 5769 5767 5764 5762 5760 5757 5755 5753 5751 5748 5746 5744 5742 5740 5738 5736 5734 5732 5730 5728 5726 5725 5723 5721
5776 5777 5777 5778 5779 5779 5779 5779 5779 5779 5778 5777 5776 5775 5774 5772 5771 5769 5767 5765 5762 5760 5758 5755 5753 5751 5749 5746 5744 5742 5740 5737 5735 5733 5731 5730 5728 5726 5724 5722 5720 5718 5717
5768 5769 5769 5770 5771 5771 5772 5772 5772 5772 5772 5771 5770 5769 5768 5767 5765 5763 5761 5759 5757 5755 5753 5750 5748 5746 5744 5741 5739 5737 5735 5733 5730 5728 5726 5725 5723 5721 5719 5717 5715 5713 5711
5758 5759 5761 5762 5762 5763 5763 5764 5764 5764 5764 5764 5763 5762 5761 5760 5759 5757 5755 5753 5751 5749 5747 5745 5743 5740 5738 5735 5733 5731 5729 5727 5725 5723 5721 5719 5717 5715 5713 5711 5709 5707 5705